Location: Forli
(44.2227°N, 12.0407°E)
Time: 02:56:37
(UTC+02:00)

DX 1 - Pass Details

Date: 20 April 2026
Orbit: 593 x 604 km, 98.4° (Epoch: 19 May)

Event Time Altitude Azimuth Distance (km) Brightness Sun altitude
Rises 04:06:41 0° 16° (NNE) 2,842 ? -21.5°
Reaches altitude 10° 04:08:53 10° 19° (NNE) 1,935 ? -21.2°
Maximum altitude 04:13:03 67° 102° (ESE) 649 ? -20.7°
Enters shadow 04:14:33 38° 172° (S) 918 ? -20.5°
